[[{"header":{"parameterUnit":"m.s-1","parameterCategory":1,"la1":30.2991,"la2":30.254,"lo1":-89.0895,"lo2":-89.0444,"dy":0.0017,"dx":0.0017,"nx":28,"ny":28,"refTime":"2025-06-11T03:00:00:Z","depth":0,"parameterNumber":2,"parameterNumberName":"U-component_of_WINDS"},"data":[0,0,0,0,0,0,0,0,0,0,0,0,0,0,0,0,0,0,0,0,0,0,0,0,0,0,0,0,0,0,0,0,0,0,0,0,0,0,0,0,0,0,0,0,0,0,0,0,0,0,0,0,0,0,0,0,0,0,-0.9551,-0.955,0,-0.9531,-0.9531,-0.9531,-0.9471,-0.9469,-0.9468,-0.9467,-0.9448,-0.9448,-0.9449,0,0,0,0,0,0,0,0,0,0,0,0,0,-0.9537,-0.9538,-0.9551,-0.955,-0.955,-0.9531,-0.9531,-0.9531,-0.9471,-0.9469,-0.9468,-0.9466,-0.9447,-0.9448,-0.9449,0,0,0,0,0,0,0,0,0,0,0,0,0,-0.9533,-0.9538,-0.9551,-0.9518,-0.9515,-0.9531,-0.9531,-0.953,-0.9471,-0.9469,-0.9467,-0.9465,-0.9447,-0.9448,-0.9449,-0.9496,0,0,-0.9453,-0.9453,0,0,0,0,0,0,0,0,-0.9533,-0.9533,-0.9523,-0.952,-0.9517,-0.9501,-0.9519,-0.9519,-0.9472,-0.9488,-0.9467,-0.9464,-0.9467,-0.9467,-0.9467,-0.9495,-0.9494,-0.9453,-0.9453,-0.9454,-0.9454,0,0,0,0,0,0,0,-0.9533,-0.9534,-0.9543,-0.9523,-0.9519,-0.9505,-0.9502,-0.9519,-0.9489,-0.9486,-0.9482,-0.948,-0.9465,-0.9466,-0.9466,-0.9494,-0.9453,-0.9454,-0.9454,-0.9455,-0.9557,-0.9559,0,0,0,0,0,0,-0.9538,-0.9534,-0.9544,-0.9542,-0.952,-0.9506,-0.9503,-0.9508,-0.9489,-0.9484,-0.9482,-0.9478,-0.9465,-0.9465,-0.9465,-0.9517,-0.9454,-0.9455,-0.9456,-0.9555,-0.9558,-0.956,0,0,0,0,0,0,-0.9538,-0.954,-0.9544,-0.9537,-0.9537,-0.9509,-0.9515,-0.9509,-0.951,-0.9485,-0.948,-0.9489,-0.9464,-0.9464,-0.9488,-0.9516,-0.9455,-0.9456,-0.9553,-0.9556,-0.9559,-0.9623,0,0,0,0,0,0,-0.9538,-0.954,-0.9557,-0.9538,-0.9537,-0.9568,-0.9517,-0.951,-0.9512,-0.9506,-0.949,-0.9486,-0.9462,-0.9487,-0.9489,-0.9516,-0.9457,-0.955,-0.9554,-0.9558,-0.9618,-0.9628,-0.9636,0,0,0,0,0,-0.9538,-0.9577,-0.9559,-0.956,-0.9558,-0.9569,-0.9569,-0.9541,-0.9514,-0.9532,-0.9516,-0.9486,-0.9513,-0.949,-0.9492,-0.952,-0.9548,-0.9553,-0.9558,-0.9614,-0.9626,-0.9636,0,0,0,0,0,0,-0.9601,-0.9574,-0.9553,-0.9587,-0.9581,-0.9559,-0.958,-0.9555,-0.9556,-0.9551,-0.9516,-0.9513,-0.9542,-0.9534,-0.9509,-0.9563,-0.9526,-0.9531,-0.9568,-0.9579,-0.9587,-0.9588,-0.9458,0,0,0,0,0,-0.9618,-0.9629,-0.9605,-0.9637,-0.9635,-0.9608,-0.9612,-0.9591,-0.9583,-0.9581,-0.9566,-0.9561,-0.9567,-0.9573,-0.9578,-0.9617,-0.9612,-0.9637,-0.9646,-0.9653,-0.9658,-0.9677,-0.9687,-0.9575,-0.9575,-0.9575,0,0,-0.9655,-0.9642,-0.9651,-0.9649,-0.9642,-0.9654,-0.9607,-0.9622,-0.963,-0.9583,-0.9605,-0.9594,-0.9585,-0.9617,-0.963,-0.9611,-0.9688,-0.9659,-0.9665,-0.9666,-0.9682,-0.9693,-0.9703,-0.9578,-0.9578,-0.9577,0,0,-0.9728,-0.9719,-0.9744,-0.9738,-0.9727,-0.9709,-0.9715,-0.9697,-0.9688,-0.971,-0.9674,-0.9684,-0.9697,-0.9691,-0.9691,-0.9761,-0.9733,-0.9763,-0.981,-0.9828,-0.9837,-0.9845,-0.9869,-0.9878,-0.9768,-0.9769,-0.9769,0,-0.9775,-0.9791,-0.9761,-0.9777,-0.9778,-0.9735,-0.976,-0.9756,-0.9748,-0.9749,-0.9727,-0.9741,-0.9732,-0.9761,-0.9778,-0.978,-0.9785,-0.9765,-0.9838,-0.9846,-0.9852,-0.9875,-0.9884,-0.9772,-0.9772,-0.9771,-0.9771,0,-0.9849,-0.9861,-0.9883,-0.9875,-0.9878,-0.9899,-0.9871,-0.9878,-0.9856,-0.984,-0.9862,-0.985,-0.9851,-0.9857,-0.9837,-0.9883,-0.9871,-0.9845,-0.9806,-0.9867,-0.9888,-0.9896,-0.9777,-0.9776,-0.9775,-0.9774,0,0,-0.9961,-0.9935,-0.9944,-0.9939,-0.9924,-0.9933,-0.9952,-0.9953,-0.9958,-0.9954,-0.9969,-0.998,-0.9955,-0.9954,-0.9933,-0.995,-1.0005,-0.9921,-0.992,-0.9936,-1.0054,-1.0073,-1.0083,-0.9987,-0.9988,-0.9989,-1.0054,0,-1.0029,-1.0059,-1.0032,-1.0067,-1.0077,-1.0037,-1.0053,-1.0046,-1.0032,-1.0038,-1.0022,-1.003,-0.9998,-0.9996,-1.0011,-0.9995,-1.0028,-0.999,-0.9999,-1.0,-1.0002,-1.0094,-1.0115,-1.0176,-1.0062,-1.0063,-1.0064,0,-1.0112,-1.0111,-1.0147,-1.0129,-1.0132,-1.0147,-1.0145,-1.0152,-1.0143,-1.0131,-1.013,-1.0103,-1.012,-1.0083,-1.0106,-1.0081,-1.0083,-1.0076,-1.0077,-1.0076,-1.0035,-1.0095,-1.0195,-1.0204,-1.0077,-1.0076,-1.0075,0,-1.0189,-1.0196,-1.0218,-1.0216,-1.0196,-1.0207,-1.0199,-1.0188,-1.0189,-1.0188,-1.0188,-1.0189,-1.019,-1.0191,-1.0165,-1.0141,-1.0191,-1.0152,-1.0181,-1.0182,-1.0192,-1.0192,-1.0294,-1.0196,-1.0196,-1.0196,-1.0196,0,-1.0267,-1.029,-1.0252,-1.0266,-1.0291,-1.0259,-1.0285,-1.0273,-1.0263,-1.0273,-1.0239,-1.025,-1.0216,-1.0223,-1.0204,-1.0225,-1.0225,-1.0216,-1.021,-1.0218,-1.0219,-1.0219,-1.0213,-1.0198,-1.0198,-1.0197,-1.0197,0,-1.0356,-1.0331,-1.0353,-1.0331,-1.0326,-1.0346,-1.0327,-1.0339,-1.0322,-1.0336,-1.0337,-1.0311,-1.0317,-1.0292,-1.0295,-1.0282,-1.0312,-1.03,-1.0315,-1.0311,-1.0341,-1.0338,-1.0445,-1.0457,-1.0353,-1.0354,-1.0355,0,-1.0407,-1.0423,-1.0404,-1.0408,-1.0401,-1.0409,-1.041,-1.038,-1.0383,-1.0373,-1.0386,-1.0389,-1.039,-1.0403,-1.0384,-1.0385,-1.0372,-1.0409,-1.0372,-1.0379,-1.0371,-1.037,-1.0371,-1.0417,-1.0418,-1.0419,-1.042,0,-1.0499,-1.0486,-1.0489,-1.0488,-1.049,-1.0488,-1.0483,-1.0489,-1.0456,-1.0461,-1.0467,-1.0468,-1.047,-1.0473,-1.0471,-1.0462,-1.0436,-1.0432,-1.0439,-1.0446,-1.0454,-1.0449,-1.0335,-1.043,-1.0429,-1.0428,-1.0427,-1.0427,-1.0569,-1.0582,-1.057,-1.0574,-1.0567,-1.0564,-1.0573,-1.0557,-1.0561,-1.056,-1.0542,-1.0551,-1.0541,-1.0534,-1.0529,-1.0535,-1.0518,-1.0528,-1.053,-1.0533,-1.0537,-1.0454,-1.0535,-1.0535,-1.0535,-1.0534,-1.0534,0,-1.0659,-1.0649,-1.0653,-1.0647,-1.0651,-1.0625,-1.0618,-1.0623,-1.0631,-1.0624,-1.0625,-1.0631,-1.0634,-1.0616,-1.0616,-1.0625,-1.0613,-1.0626,-1.0625,-1.0623,-1.0554,-1.0547,-1.0636,-1.0636,-1.0636,-1.0636,-1.0636,-1.0636,-1.0706,-1.0725,-1.0711,-1.0726,-1.0716,-1.0724,-1.0723,-1.0719,-1.0712,-1.0721,-1.0723,-1.0711,-1.0698,-1.0698,-1.0699,-1.0694,-1.0695,-1.0713,-1.0703,-1.0638,-1.0628,-1.0619,-1.0612,-1.0713,-1.0714,-1.0771,-1.0772,-1.0772]},{"header":{"parameterUnit":"m.s-1","parameterCategory":1,"la1":30.2991,"la2":30.254,"lo1":-89.0895,"lo2":-89.0444,"dy":0.0017,"dx":0.0017,"nx":28,"ny":28,"refTime":"2025-06-11T03:00:00:Z","depth":0,"parameterNumber":3,"parameterNumberName":"V-component_of_WINDS"},"data":[0,0,0,0,0,0,0,0,0,0,0,0,0,0,0,0,0,0,0,0,0,0,0,0,0,0,0,0,0,0,0,0,0,0,0,0,0,0,0,0,0,0,0,0,0,0,0,0,0,0,0,0,0,0,0,0,0,0,-1.8147,-1.8147,0,-1.8179,-1.8179,-1.818,-1.8186,-1.8185,-1.8185,-1.8185,-1.8215,-1.8216,-1.8217,0,0,0,0,0,0,0,0,0,0,0,0,0,-1.8088,-1.8089,-1.8147,-1.8147,-1.8148,-1.8179,-1.8179,-1.818,-1.8186,-1.8185,-1.8185,-1.8185,-1.8215,-1.8216,-1.8218,0,0,0,0,0,0,0,0,0,0,0,0,0,-1.8116,-1.8089,-1.8147,-1.8154,-1.8155,-1.8179,-1.8179,-1.818,-1.8186,-1.8185,-1.8185,-1.8185,-1.8215,-1.8216,-1.8218,-1.8235,0,0,-1.8223,-1.8223,0,0,0,0,0,0,0,0,-1.8114,-1.8118,-1.8153,-1.8154,-1.8155,-1.8178,-1.817,-1.8198,-1.8186,-1.8174,-1.8185,-1.8184,-1.8203,-1.8206,-1.8212,-1.8237,-1.8238,-1.8223,-1.8224,-1.8224,-1.8225,0,0,0,0,0,0,0,-1.8112,-1.8117,-1.816,-1.8153,-1.8155,-1.8155,-1.8159,-1.8175,-1.819,-1.8175,-1.8176,-1.818,-1.8204,-1.8211,-1.8213,-1.8238,-1.8223,-1.8224,-1.8225,-1.8226,-1.8277,-1.8278,0,0,0,0,0,0,-1.8109,-1.8115,-1.8159,-1.816,-1.8133,-1.8157,-1.8161,-1.8171,-1.819,-1.8193,-1.818,-1.818,-1.8208,-1.8211,-1.8214,-1.8235,-1.8224,-1.8226,-1.8227,-1.8277,-1.8277,-1.8278,0,0,0,0,0,0,-1.8108,-1.8113,-1.8157,-1.8138,-1.8144,-1.8158,-1.817,-1.8172,-1.8179,-1.8194,-1.8196,-1.8185,-1.8208,-1.8212,-1.823,-1.8236,-1.8227,-1.8228,-1.8276,-1.8277,-1.8278,-1.8278,0,0,0,0,0,0,-1.8106,-1.8113,-1.812,-1.8138,-1.8145,-1.8173,-1.817,-1.8173,-1.8182,-1.8182,-1.8199,-1.8201,-1.8208,-1.8227,-1.8231,-1.8238,-1.8229,-1.8276,-1.8277,-1.8277,-1.8277,-1.8278,-1.8279,0,0,0,0,0,-1.8104,-1.8119,-1.8121,-1.8126,-1.8154,-1.8173,-1.8177,-1.8185,-1.8183,-1.819,-1.8199,-1.8201,-1.8235,-1.8229,-1.8234,-1.8241,-1.8275,-1.8276,-1.8277,-1.8277,-1.8278,-1.8279,0,0,0,0,0,0,-1.81,-1.8121,-1.8123,-1.8144,-1.8157,-1.8174,-1.8184,-1.8187,-1.82,-1.82,-1.8209,-1.8212,-1.8229,-1.8237,-1.823,-1.8259,-1.8255,-1.8257,-1.8253,-1.8254,-1.8255,-1.8253,-1.823,0,0,0,0,0,-1.8102,-1.8117,-1.8134,-1.815,-1.8157,-1.8169,-1.8178,-1.8183,-1.8196,-1.8202,-1.8212,-1.8225,-1.8238,-1.8247,-1.826,-1.8278,-1.8282,-1.8286,-1.8287,-1.8287,-1.8289,-1.8298,-1.83,-1.8281,-1.8281,-1.8281,0,0,-1.8105,-1.8118,-1.8127,-1.815,-1.816,-1.8174,-1.8174,-1.8189,-1.8199,-1.8204,-1.8221,-1.8229,-1.8244,-1.8262,-1.827,-1.8269,-1.8295,-1.8289,-1.8289,-1.829,-1.8299,-1.8301,-1.8303,-1.8282,-1.8282,-1.8281,0,0,-1.8118,-1.813,-1.8145,-1.8156,-1.8172,-1.818,-1.8184,-1.8201,-1.8206,-1.8224,-1.8228,-1.824,-1.8263,-1.8273,-1.8281,-1.8297,-1.8299,-1.8301,-1.8306,-1.8315,-1.8317,-1.8318,-1.8323,-1.8325,-1.8303,-1.8303,-1.8303,0,-1.812,-1.8142,-1.8152,-1.8167,-1.8176,-1.8182,-1.8196,-1.8206,-1.8226,-1.8231,-1.823,-1.8259,-1.8269,-1.8289,-1.8293,-1.8299,-1.8303,-1.8299,-1.8316,-1.8317,-1.8319,-1.8324,-1.8326,-1.8303,-1.8303,-1.8303,-1.8303,0,-1.8143,-1.8158,-1.8168,-1.8187,-1.8198,-1.8212,-1.8223,-1.8233,-1.8237,-1.8245,-1.8263,-1.8275,-1.829,-1.8296,-1.83,-1.8316,-1.8315,-1.8314,-1.8311,-1.8321,-1.8325,-1.8327,-1.8303,-1.8303,-1.8303,-1.8303,0,0,-1.8154,-1.8179,-1.8182,-1.8191,-1.8209,-1.822,-1.8235,-1.8251,-1.8258,-1.8271,-1.8283,-1.8302,-1.8302,-1.8311,-1.8317,-1.8325,-1.8336,-1.8323,-1.8324,-1.8325,-1.8353,-1.8353,-1.8355,-1.8337,-1.8338,-1.8338,-1.8352,0,-1.8169,-1.8195,-1.8204,-1.8226,-1.824,-1.8245,-1.8258,-1.827,-1.8277,-1.8289,-1.8298,-1.8311,-1.831,-1.8316,-1.8324,-1.8333,-1.8341,-1.8332,-1.8347,-1.8347,-1.8343,-1.8357,-1.8357,-1.8369,-1.8354,-1.8354,-1.8354,0,-1.8189,-1.8203,-1.8227,-1.8243,-1.8249,-1.826,-1.8275,-1.8286,-1.83,-1.8305,-1.8315,-1.8319,-1.8334,-1.833,-1.8349,-1.8342,-1.8349,-1.8354,-1.8354,-1.8356,-1.8351,-1.8358,-1.8374,-1.8375,-1.8357,-1.8357,-1.8357,0,-1.8194,-1.8219,-1.8236,-1.8243,-1.8262,-1.827,-1.8278,-1.8291,-1.83,-1.8313,-1.8318,-1.8332,-1.834,-1.835,-1.8358,-1.8355,-1.8376,-1.8373,-1.838,-1.838,-1.8384,-1.8383,-1.84,-1.8389,-1.8389,-1.8389,-1.8389,0,-1.8209,-1.8223,-1.8238,-1.8248,-1.8263,-1.8273,-1.8288,-1.8296,-1.8308,-1.8319,-1.8325,-1.8335,-1.8345,-1.8357,-1.8363,-1.8377,-1.8381,-1.8384,-1.8386,-1.8384,-1.8383,-1.8388,-1.8387,-1.839,-1.8389,-1.8389,-1.8389,0,-1.8216,-1.8227,-1.8246,-1.8263,-1.8268,-1.8278,-1.8292,-1.8302,-1.831,-1.8324,-1.8328,-1.834,-1.8354,-1.8363,-1.838,-1.8385,-1.84,-1.8401,-1.8396,-1.8396,-1.8402,-1.8401,-1.8422,-1.8424,-1.8413,-1.8413,-1.8413,0,-1.8225,-1.8236,-1.8254,-1.8262,-1.8271,-1.8284,-1.8293,-1.8303,-1.8312,-1.8328,-1.8336,-1.835,-1.8362,-1.8383,-1.8393,-1.8406,-1.8408,-1.8414,-1.8409,-1.8407,-1.8407,-1.8406,-1.8406,-1.8414,-1.8414,-1.8414,-1.8414,0,-1.8238,-1.8243,-1.8257,-1.8272,-1.8283,-1.8295,-1.8307,-1.8313,-1.8325,-1.8335,-1.8349,-1.8359,-1.8376,-1.839,-1.8404,-1.8412,-1.8415,-1.8416,-1.8418,-1.8415,-1.8411,-1.8413,-1.8397,-1.8415,-1.8415,-1.8415,-1.8415,-1.8415,-1.8246,-1.8256,-1.827,-1.8284,-1.8295,-1.8306,-1.8316,-1.8325,-1.8338,-1.8354,-1.8358,-1.8373,-1.8386,-1.8405,-1.8413,-1.8424,-1.8423,-1.8426,-1.8427,-1.8427,-1.8427,-1.841,-1.8426,-1.8426,-1.8426,-1.8426,-1.8426,0,-1.8259,-1.8269,-1.8282,-1.8299,-1.831,-1.8313,-1.8327,-1.8335,-1.8349,-1.836,-1.8372,-1.8388,-1.8402,-1.8413,-1.8426,-1.8433,-1.8434,-1.8436,-1.8435,-1.8437,-1.8427,-1.8424,-1.8434,-1.8434,-1.8434,-1.8434,-1.8434,-1.8434,-1.8267,-1.8283,-1.829,-1.8311,-1.832,-1.8335,-1.8342,-1.8352,-1.8362,-1.838,-1.8391,-1.8399,-1.841,-1.8424,-1.8436,-1.8439,-1.8443,-1.8444,-1.8447,-1.8438,-1.8437,-1.8436,-1.8433,-1.8445,-1.8445,-1.8456,-1.8456,-1.8456]}]]